Location: Unspecified
(0.0000°N, 0.0000°E)
Time: 22:58:55
(UTC+00:00)

Vela 2A - Pass Details

Date: 08 September 2024
Orbit: 51020 x 155464 km, 49.4° (Epoch: 10 October)

Event Time Altitude Azimuth Distance (km) Brightness Sun altitude
Rises 10:27:33 0° 41° (NE) 149,262 ? 66.9°
Reaches altitude 10° 11:40:49 10° 40° (NE) 149,979 ? 83.2°
Maximum altitude 17:25:30 42° 358° (N) 153,506 ? 8.0°
Drops below altitude 10° 22:48:43 10° 314° (NW) 159,914 ? -72.1°
Sets 23:51:32 0° 313° (NW) 161,350 ? -84.6°
